Location: Te Maire Creek
(41.1333°S, 175.9167°E)
Time: 22:02:07
(UTC+00:00)

Lacrosse 5 - Pass Details

Date: 19 May 2024
Orbit: 714 x 724 km, 57.0° (Epoch: 09 March)

Event Time Altitude Azimuth Distance (km) Brightness Sun altitude
Exits shadow 18:39:55 - 217° (SW) 2,664 4.3 -8.1°
Reaches altitude 10° 18:41:42 10° 203° (SSW) 2,229 4.0 -7.8°
Maximum altitude 18:44:37 15° 168° (SSE) 1,903 4.0 -7.3°
Drops below altitude 10° 18:47:33 10° 133° (SE) 2,223 4.8 -6.8°
Sets 18:50:59 0° 109° (ESE) 3,140 6.0 -6.2°
